Home   Weather   Flensburg   Past weeks

Flag for Germany Past Weather in Flensburg, Schleswig-Holstein, Germany — Yesterday and Last 2 Weeks

Now
63 °F

Mild.


Feels Like: 63 °F
Forecast: 49 / 65 °F
Wind: 9 mph from Southeast

Location: Soenderborg Lufthavn

Current Time: Sep 25, 2016 at 9:07:54 PM

Latest Report: Sep 25, 2016 at 8:20 PM


Visibility: N/A

Pressure: 30.04 "Hg

Humidity: 83%

Dew Point: 57 °F

Location of FlensburgLocation

Past Weather in Flensburg — Graph

°F

Flensburg Temperature Yesterday

Maximum temperature yesterday: 66 °F (at 12:50 PM)
Minimum temperature yesterday: 52 °F (at 1:20 AM)
Average temperature yesterday: 59 °F

High & Low Weather Summary for the Past Weeks

 TemperatureHumidityPressure
High79 °F (Sep 13, 2:20 PM)94% (Sep 12, 1:50 AM)30.21 "Hg (Sep 12, 1:50 AM)
Low52 °F (Sep 20, 5:20 AM)47% (Sep 16, 2:20 PM)29.89 "Hg (Sep 16, 11:50 AM)
Average64 °F77%30.08 "Hg
* Reported Sep 10 7:20 PM — Sep 25 7:50 PM, Flensburg, Weather by CustomWeather, © 2016

Note: Actual official high and low records may vary slightly from our data, if they occured in-between our weather recording intervals... More about our weather records

Advertising

Flensburg Weather History for the Previous 24 Hours

Scroll right to see more
 ConditionsComfort  
Time TempWeatherWind HumidityBarometerVisibility
7:50 PM
Sun, Sep 25
63 °FMild.9 mph83%30.04 "HgN/A
7:20 PM63 °FClear.9 mph83%30.04 "Hg10 mi
6:50 PM64 °FSunny.12 mph78%30.04 "Hg10 mi
6:20 PM66 °FSunny.12 mph73%30.04 "Hg10 mi
5:50 PM66 °FSunny.15 mph73%30.04 "Hg10 mi
5:20 PM68 °FSunny.16 mph64%30.04 "Hg10 mi
4:50 PM68 °FSunny.17 mph64%30.04 "Hg10 mi
4:20 PM68 °FSunny.16 mph64%30.04 "Hg10 mi
3:50 PM68 °FSunny.18 mph64%30.04 "Hg10 mi
3:20 PM68 °FSunny.17 mph64%30.04 "Hg10 mi
2:50 PM68 °FSunny.16 mph69%30.04 "Hg10 mi
1:50 PM68 °FSunny.15 mph69%30.07 "Hg10 mi
1:20 PM68 °FSunny.14 mph64%30.07 "Hg10 mi
12:50 PM68 °FSunny.14 mph64%30.07 "Hg10 mi
11:50 AM66 °FSunny.12 mph68%30.09 "Hg10 mi
10:50 AM64 °FSunny.13 mph73%30.09 "Hg10 mi
10:20 AM64 °FSunny.10 mph68%30.09 "Hg10 mi
9:50 AM63 °FSunny.9 mph73%30.09 "Hg10 mi
9:20 AM61 °FCool.8 mph77%30.09 "HgN/A
8:50 AM59 °FCool.6 mph82%30.09 "HgN/A
8:20 AM57 °FCool.7 mph82%30.09 "HgN/A
7:50 AM55 °FCool.6 mph82%30.09 "HgN/A
7:20 AM55 °FCool.7 mph82%30.09 "HgN/A
6:50 AM57 °FCool.6 mph77%30.09 "HgN/A
6:20 AM57 °FCool.6 mph77%30.09 "HgN/A
5:50 AM57 °FCool.2 mph77%30.12 "HgN/A
5:20 AM57 °FCool.5 mph82%30.12 "HgN/A
4:50 AM57 °FCool.5 mph82%30.12 "HgN/A
4:20 AM57 °FCool.5 mph82%30.12 "HgN/A
3:50 AM57 °FCool.7 mph82%30.12 "HgN/A
3:20 AM57 °FCool.6 mph82%30.12 "HgN/A
2:50 AM57 °FCool.6 mph82%30.15 "HgN/A
2:20 AM57 °FCool.7 mph82%30.12 "HgN/A
1:50 AM59 °FCool.6 mph77%30.15 "HgN/A
1:20 AM57 °FCool.7 mph82%30.15 "HgN/A
12:50 AM57 °FCool.7 mph82%30.15 "HgN/A
12:20 AM59 °FCool.7 mph77%30.15 "HgN/A
11:50 PM
Sat, Sep 24
59 °FCool.6 mph77%30.15 "HgN/A
11:20 PM59 °FCool.6 mph77%30.15 "HgN/A
10:50 PM61 °FPassing clouds.6 mph77%30.15 "HgN/A
10:20 PM61 °FPassing clouds.6 mph83%30.15 "HgN/A
9:50 PM59 °FPassing clouds.7 mph88%30.15 "HgN/A
9:20 PM57 °FPassing clouds.7 mph88%30.15 "HgN/A
Weather by CustomWeather, © 2016

See weather overviewHow to use our weather pages